ABS-2

Last updated on Jan. 26, 2020, 4:40 a.m. UTC

1 39508U 14006A   20025.56230169 -.00000094  00000-0  00000-0 0  9991
2 39508   0.0159  52.0355 0003537 291.0542  58.5660  1.00272153 21872
UTC
Height (km)
Latitude
Longitude
Inclination
Orbital Period
UTC large
Height (km)
Speed (km/s)
/
Latitude / Longitude
Inclination (degrees)
Orbital Period (minutes)
Azimuth
Elevation
Range (km)
Doppler Factor
iOS Compass Heading
iOS Angle

Next 30 passes for location: Hong Kong

Rise time Rise Azimuth (degrees) Set time Set Azimuth (degrees) Duration Max altitude (degrees)

No matching passes for this satellites